Regional Weather Roundup
Issued by NWS

Home | Current Version | Previous Version | Text Only | Print | Product List | Glossary On
Versions: 1 2 3 4 5 6 7 8 9 10 11 12 13 14 15 16 17 18 19 20 21 22 23 24 25 26 27
000
ASCA42 TJSJ 011510
RWRPR
PUERTO RICO/U.S. VIRGIN ISLANDS HOURLY WEATHER ROUNDUP
NATIONAL WEATHER SERVICE SAN JUAN PR
1100 AM AST SUN MAY 01 2016

PRZ001-004-011600-
PUERTO RICO

CITY           SKY/WX    TMP DP  RH WIND       PRES   REMARKS
SAN JUAN LMM   LGT RAIN  75  72  88 S3        30.00S
AGUADILLA      MOSUNNY   84  72  65 E10       30.00S
CEIBA          CLOUDY    79  75  89 CALM      30.02S
$$

PRZ006-007-011600-
U.S. VIRGIN ISLANDS

CITY           SKY/WX    TMP DP  RH WIND       PRES   REMARKS
CHARLOTTE AMA  MOSUNNY   81  72  74 E15G25    29.99R
CHRISTIANSTED  CLOUDY    75  72  88 E7        30.00R
$$

HOURLY WEATHER ROUNDUP FOR THE NEWS MEDIA

CITY           SKY/WX    TMP DP  RH WIND       PRES   REMARKS
ORLANDO        PTSUNNY   83  67  58 S12       30.07R
NEW YORK       LGT RAIN  49  45  86 SE10      30.22S
NEWARK         LGT RAIN  47  44  90 SE7       30.21R
CHICAGO        FOG       44  44 100 NE12      30.00S VSB 1/4
HARTFORD       PTSUNNY   52  31  44 S9        30.25F
DALLAS         SUNNY     64  48  56 N13       30.01R
PHILADELPHIA   LGT RAIN  48  44  86 E8        30.18
LOS ANGELES    MOSUNNY   60  52  74 E6        29.91R
WASHINGTON DC  LGT RAIN  53  52  96 S9        30.08F FOG



USA.gov is the U.S. government's official web portal to all federal, state and local government web resources and services.